Medicine Lodge, KS

2:40 PM CST on December 05, 2019 (GMT -0600)
Medicine Lodge

Weather History for KP28 - October, 2019

Change the Weather History Date:

Tuesday, October 29, 2019

  Actual Average Record
Temperature  
Mean Temperature 28 °F 53 °F  
Max Temperature 38 °F 66 °F 92 °F (1937)
Min Temperature 17 °F 41 °F 17 °F (2019)
Degree Days  
Heating Degree Days 37 12  
Month to date heating degree days 323 212  
Since 1 July heating degree days 323 246  
Cooling Degree Days 0 0  
Month to date cooling degree days 23 37  
Year to date cooling degree days 1837 1768  
Moisture  
Dew Point 23 °F    
Average Humidity 80    
Maximum Humidity 100    
Minimum Humidity 59    
Precipitation  
Precipitation 0.00 in 0.08 in 2.12 in (1979)
Month to date precipitation 1.79 2.68  
Year to date precipitation 30.37 25.13  
Snow  
Snow 0.00 in 0.00 in - ()
Month to date snowfall 0.0 0.0  
Since 1 July snowfall 0.0 0.0  
Since 1 September snowfall 0.0 0.0  
Snow Depth 0.00 in    
Sea Level Pressure  
Sea Level Pressure 30.25 in    
Wind  
Wind Speed 9 mph (NNE)    
Max Wind Speed 21 mph    
Max Gust Speed 29 mph    
T = Trace of Precipitation, MM = Missing Value Source: NWS Daily Summary

Daily Weather History Graph

Daily Weather History Graph

Search for Another Location

Airport or City:

Astronomy

Oct. 29, 2019 Rise Set
Actual Time 7:55 AM CDT 6:39 PM CDT
Civil Twilight 7:28 AM CDT 7:06 PM CDT
Nautical Twilight 6:58 AM CDT 7:37 PM CDT
Astronomical Twilight 6:27 AM CDT 8:07 PM CDT
Moon 9:29 AM CDT (10/29) 8:07 PM CDT (10/29)
Length of Visible Light 11h 37m
Length of Day
10h 44m
Waxing Crescent, 3% of the Moon is Illuminated
Oct 29
Waxing Crescent
Nov 4
First Quarter
Nov 12
Full
Nov 19
Last Quarter
Nov 26
New

Hourly Weather History & Observations

Time (CDT) Temp. Windchill Dew Point Humidity Pressure Visibility Wind Dir Wind Speed Gust Speed Precip Events Conditions
12:56 AM 23.0 °F 17.0 °F 21.0 °F 92% 30.25 in - NNW 4.6 mph - N/A   Unknown
1:56 AM 21.9 °F - 19.9 °F 92% 30.26 in - Calm Calm - N/A   Unknown
2:56 AM 19.9 °F - 19.0 °F 96% 30.26 in - Calm Calm - N/A   Unknown
3:56 AM 19.0 °F - 17.1 °F 92% 30.24 in - Calm Calm - N/A   Unknown
4:56 AM 19.0 °F 12.3 °F 18.0 °F 96% 30.24 in - NW 4.6 mph - N/A   Unknown
5:56 AM 19.0 °F - 17.1 °F 92% 30.26 in - Calm Calm - N/A   Unknown
7:56 AM 17.1 °F 7.6 °F 15.1 °F 92% 30.27 in - NNW 6.9 mph - N/A   Unknown
8:56 AM 26.1 °F 15.6 °F 25.0 °F 96% 30.24 in - NNE 11.5 mph - N/A   Unknown
9:56 AM 28.9 °F 20.4 °F 27.0 °F 92% 30.28 in - NNE 9.2 mph - N/A   Unknown
10:56 AM 30.9 °F 23.5 °F 26.1 °F 82% 30.28 in - ENE 8.1 mph - N/A   Unknown
11:56 AM 33.1 °F 25.5 °F 25.0 °F 72% 30.29 in - ENE 9.2 mph - N/A   Unknown
12:56 PM 35.1 °F 27.4 °F 25.0 °F 67% 30.27 in - NNE 10.4 mph - N/A   Unknown
1:56 PM 36.0 °F 28.5 °F 25.0 °F 64% 30.24 in - NE 10.4 mph - N/A   Unknown
2:56 PM 36.0 °F 28.5 °F 25.0 °F 64% 30.22 in - NNE 10.4 mph - N/A   Unknown
3:56 PM 37.9 °F 30.0 °F 25.0 °F 60% 30.21 in - NNE 12.7 mph - N/A   Unknown
4:56 PM 37.9 °F 29.2 °F 25.0 °F 60% 30.20 in - NE 15.0 mph 18.4 mph N/A   Unknown
5:56 PM 37.0 °F 28.5 °F 25.0 °F 62% 30.20 in - NE 13.8 mph - N/A   Unknown
8:56 PM 36.0 °F 28.5 °F 25.0 °F 64% 30.22 in - NNE 10.4 mph - N/A   Unknown
9:56 PM 36.0 °F 28.0 °F 26.1 °F 67% 30.25 in - NNE 11.5 mph - N/A   Unknown
11:56 PM 35.1 °F 25.2 °F 26.1 °F 70% 30.25 in - NNE 16.1 mph 25.3 mph N/A   Unknown